Regional Weather Roundup
Issued by NWS Albany, NY

Home | Current Version | Previous Version | Text Only | Print | Product List | Glossary On
Versions: 1 2 3 4 5 6 7 8 9 10 11 12 13 14 15 16 17 18 19 20 21 22 23 24 25 26 27 28 29 30 31 32 33 34 35 36 37 38 39 40 41 42 43 44 45 46 47 48 49 50
000
ASUS41 KALY 262110
RWRALY

NEW YORK STATE HOURLY WEATHER ROUNDUP
NATIONAL WEATHER SERVICE ALBANY NY
400 PM EST FRI DEC 26 2014

NOTE: "FAIR" INDICATES FEW OR NO CLOUDS BELOW 12,000 FEET WITH NO
SIGNIFICANT WEATHER AND/OR NO OBSTRUCTIONS TO VISIBILITY.

NYZ032-033-038>043-046>054-057>066-NYZ062>081-262200-
EAST


CITY           SKY/WX    TMP DP  RH WIND       PRES   REMARKS
ALBANY         PTCLDY    45  29  53 N3        30.16F
GLENS FALLS    CLEAR     44  28  53 SW5       30.13R
POUGHKEEPSIE   CLEAR     50  27  40 SW6       30.16R
NEWBURGH       CLEAR     48  32  53 W8        30.17R
MONTGOMERY     CLEAR     48  27  44 SW6       30.15S
WHITE PLAINS   CLEAR     46  28  49 W6        30.16S
ISLIP          PTCLDY    48  29  47 W6        30.17R
NEW YORK CITY  PTCLDY    49  28  44 W7        30.19R
CENTRAL PARK   CLEAR     49  27  42 W8        30.21S
$$

NYZ005>009-017-018-044>046-055-056-262200-
CENTRAL


CITY           SKY/WX    TMP DP  RH WIND       PRES   REMARKS
FULTON         CLEAR     43  30  60 S8        30.13S
SYRACUSE       PTCLDY    43  29  57 W7        30.14S
ROME           PTCLDY    42  30  62 CALM      30.16S
ELMIRA         CLEAR     46  27  47 S8        30.14S
BINGHAMTON     CLEAR     40  27  59 SW7       30.13S
MONTICELLO     CLEAR     43  27  52 W7        30.16R
$$

NYZ026>034-041>043-262200-
NORTH


CITY           SKY/WX    TMP DP  RH WIND       PRES   REMARKS
WATERTOWN      MOCLDY    43  30  60 SW6       30.12F
FORT DRUM      NOT AVBL
MASSENA        CLOUDY    40  30  67 SW13G21   30.10S WCI  32
SARANAC LAKE   CLEAR     36  27  69 SW10      30.04S WCI  28
PLATTSBURGH    CLEAR     41  28  60 CALM      30.09F
$$

NYZ001>004-010>016-019>021-262200-
WEST


CITY           SKY/WX    TMP DP  RH WIND       PRES   REMARKS
NIAGARA FALLS  MOCLDY    44  32  62 SW12      30.10S
BUFFALO        MOCLDY    46  30  53 SW10      30.11R
DUNKIRK        CLEAR     48  30  49 SW10G23   30.11R
JAMESTOWN      CLEAR     45  27  49 S12       30.11S
WELLSVILLE     CLEAR     42  26  53 SW10      30.11F
ROCHESTER      MOCLDY    46  29  51 SW6       30.12S
PENN YAN       CLEAR     45  27  49 S6        30.13R
$$

             KEY
       WCI = WIND CHILL INDEX
       VSB = VISIBILITY
       HX  = HEAT INDEX
$$



USA.gov is the U.S. government's official web portal to all federal, state and local government web resources and services.